Time,TemperatureF,DewpointF,PressureIn,WindDirection,WindDirectionDegrees,WindSpeedMPH,WindSpeedGustMPH,Humidity,HourlyPrecipIn,Conditions,Clouds,dailyrainin,SoftwareType,DateUTC
2013-06-06 00:03:00,68.0,55.0,-100.00,WSW,237,5.0,10.0,66,0.00,,,-99.99,,2013-06-06 04:03:00,
2013-06-06 00:13:00,68.0,55.0,-100.00,SW,228,2.0,10.0,66,0.00,,,-99.99,,2013-06-06 04:13:00,
2013-06-06 00:23:00,68.0,55.0,-100.00,WSW,258,4.0,10.0,66,0.00,,,-99.99,,2013-06-06 04:23:00,
2013-06-06 00:33:00,67.0,54.0,-100.00,West,278,2.0,10.0,64,0.00,,,-99.99,,2013-06-06 04:33:00,
2013-06-06 00:42:00,67.0,54.0,-100.00,SW,231,4.0,10.0,63,0.00,,,-99.99,,2013-06-06 04:42:00,
2013-06-06 00:53:00,67.0,54.0,-100.00,WSW,238,5.0,10.0,63,0.00,,,-99.99,,2013-06-06 04:53:00,
2013-06-06 01:02:00,67.0,54.0,-100.00,SW,235,4.0,10.0,63,0.00,,,-99.99,,2013-06-06 05:02:00,
2013-06-06 01:12:00,67.0,52.0,-100.00,West,275,4.0,10.0,63,2.28,,,-99.99,,2013-06-06 05:12:00,
2013-06-06 01:23:00,63.0,55.0,-100.00,WSW,244,6.0,10.0,82,-99.99,,,-99.99,,2013-06-06 05:23:00,
2013-06-06 01:32:00,60.0,57.0,-100.00,WSW,258,6.0,10.0,91,0.00,,,-99.99,,2013-06-06 05:32:00,
2013-06-06 01:42:00,60.0,57.0,-100.00,WNW,288,9.0,14.0,93,0.00,,,-99.99,,2013-06-06 05:42:00,
2013-06-06 01:52:00,62.0,59.0,-100.00,WNW,290,6.0,14.0,93,5.67,,,-99.99,,2013-06-06 05:52:00,
2013-06-06 02:02:00,62.0,59.0,-100.00,WNW,299,7.0,14.0,94,0.55,,,-99.99,,2013-06-06 06:02:00,
2013-06-06 02:12:00,63.0,61.0,-100.00,WNW,302,6.0,14.0,95,7.36,,,-99.99,,2013-06-06 06:12:00,
2013-06-06 02:22:00,64.0,63.0,-100.00,NNW,344,4.0,14.0,95,11.89,,,-99.99,,2013-06-06 06:22:00,
2013-06-06 02:33:00,64.0,63.0,-100.00,NNE,21,2.0,14.0,98,0.00,,,-99.99,,2013-06-06 06:33:00,
2013-06-06 02:42:00,63.0,61.0,-100.00,WNW,282,2.0,14.0,98,0.00,,,-99.99,,2013-06-06 06:42:00,
2013-06-06 02:52:00,63.0,61.0,-100.00,WNW,282,2.0,14.0,98,0.00,,,-99.99,,2013-06-06 06:52:00,
2013-06-06 03:02:00,63.0,61.0,-100.00,WNW,282,2.0,14.0,98,0.00,,,-99.99,,2013-06-06 07:02:00,
2013-06-06 03:12:00,63.0,61.0,-100.00,NNW,336,2.0,14.0,98,2.83,,,-99.99,,2013-06-06 07:12:00,
2013-06-06 03:22:00,65.0,63.0,-100.00,NW,326,2.0,2.0,98,2.83,,,-99.99,,2013-06-06 07:22:00,
2013-06-06 03:32:00,65.0,63.0,-100.00,North,357,2.0,2.0,95,0.00,,,-99.99,,2013-06-06 07:32:00,
2013-06-06 03:42:00,65.0,63.0,-100.00,North,4,4.0,6.0,95,0.00,,,-99.99,,2013-06-06 07:42:00,
2013-06-06 03:52:00,66.0,63.0,-100.00,North,360,5.0,6.0,95,0.00,,,-99.99,,2013-06-06 07:52:00,
2013-06-06 04:02:00,65.0,63.0,-100.00,NNE,14,4.0,6.0,95,0.00,,,-99.99,,2013-06-06 08:02:00,
2013-06-06 04:12:00,66.0,63.0,-100.00,NNE,21,6.0,10.0,95,0.00,,,-99.99,,2013-06-06 08:12:00,
2013-06-06 04:22:00,66.0,64.0,-100.00,North,2,7.0,10.0,94,0.00,,,-99.99,,2013-06-06 08:22:00,
2013-06-06 04:32:00,66.0,63.0,-100.00,North,9,6.0,10.0,94,0.00,,,-99.99,,2013-06-06 08:32:00,
2013-06-06 04:42:00,65.0,63.0,-100.00,North,2,6.0,10.0,94,0.00,,,-99.99,,2013-06-06 08:42:00,
2013-06-06 04:52:00,65.0,63.0,-100.00,North,5,4.0,10.0,95,6.81,,,-99.99,,2013-06-06 08:52:00,
2013-06-06 05:02:00,64.0,63.0,-100.00,NNW,341,3.0,10.0,97,3.39,,,-99.99,,2013-06-06 09:02:00,
2013-06-06 05:12:00,64.0,63.0,-100.00,NNW,344,2.0,10.0,97,0.55,,,-99.99,,2013-06-06 09:12:00,
2013-06-06 05:22:00,65.0,63.0,-100.00,North,9,3.0,10.0,97,28.35,,,-99.99,,2013-06-06 09:22:00,
2013-06-06 05:33:00,64.0,63.0,-100.00,North,360,3.0,10.0,98,0.55,,,-99.99,,2013-06-06 09:33:00,
2013-06-06 05:43:00,65.0,63.0,-100.00,North,357,2.0,10.0,98,0.00,,,-99.99,,2013-06-06 09:43:00,
2013-06-06 05:53:00,64.0,63.0,-100.00,SSE,162,4.0,10.0,98,0.00,,,-99.99,,2013-06-06 09:53:00,
2013-06-06 06:03:00,65.0,63.0,-100.00,North,5,3.0,10.0,98,0.00,,,-99.99,,2013-06-06 10:03:00,
2013-06-06 06:12:00,64.0,63.0,-100.00,North,358,4.0,10.0,97,0.00,,,-99.99,,2013-06-06 10:12:00,
2013-06-06 06:23:00,65.0,63.0,-100.00,North,0,4.0,10.0,97,0.00,,,-99.99,,2013-06-06 10:23:00,
2013-06-06 06:33:00,65.0,63.0,-100.00,North,355,4.0,10.0,97,0.00,,,-99.99,,2013-06-06 10:33:00,
2013-06-06 06:42:00,65.0,63.0,-100.00,NNW,348,4.0,10.0,95,0.00,,,-99.99,,2013-06-06 10:42:00,
2013-06-06 06:52:00,65.0,63.0,-100.00,WNW,303,5.0,10.0,95,0.00,,,-99.99,,2013-06-06 10:52:00,
2013-06-06 07:02:00,64.0,63.0,-100.00,North,354,6.0,10.0,95,0.00,,,-99.99,,2013-06-06 11:02:00,
2013-06-06 07:12:00,65.0,63.0,-100.00,North,352,6.0,10.0,95,2.28,,,-99.99,,2013-06-06 11:12:00,
2013-06-06 07:23:00,66.0,63.0,-100.00,North,1,5.0,10.0,95,17.56,,,-99.99,,2013-06-06 11:23:00,
2013-06-06 07:32:00,64.0,63.0,-100.00,North,357,5.0,10.0,97,4.53,,,-99.99,,2013-06-06 11:32:00,
2013-06-06 07:42:00,65.0,63.0,-100.00,NNE,14,4.0,10.0,97,0.55,,,-99.99,,2013-06-06 11:42:00,
2013-06-06 07:52:00,65.0,63.0,-100.00,North,0,4.0,10.0,97,2.28,,,-99.99,,2013-06-06 11:52:00,
2013-06-06 08:03:00,66.0,64.0,-100.00,North,4,4.0,10.0,97,17.01,,,-99.99,,2013-06-06 12:03:00,
2013-06-06 08:13:00,64.0,63.0,-100.00,North,8,5.0,10.0,97,-99.99,,,-99.99,,2013-06-06 12:13:00,
2013-06-06 08:23:00,65.0,63.0,-100.00,NNE,29,4.0,10.0,98,9.06,,,-99.99,,2013-06-06 12:23:00,
2013-06-06 08:33:00,64.0,63.0,-100.00,NE,38,2.0,10.0,98,0.00,,,-99.99,,2013-06-06 12:33:00,
2013-06-06 08:43:00,64.0,63.0,-100.00,NNE,15,3.0,10.0,98,3.39,,,-99.99,,2013-06-06 12:43:00,
2013-06-06 08:52:00,64.0,63.0,-100.00,NNE,31,4.0,10.0,98,3.39,,,-99.99,,2013-06-06 12:52:00,
2013-06-06 09:03:00,64.0,63.0,-100.00,NNE,26,4.0,10.0,98,0.00,,,-99.99,,2013-06-06 13:03:00,
2013-06-06 09:13:00,65.0,63.0,-100.00,NNE,19,4.0,10.0,98,0.00,,,-99.99,,2013-06-06 13:13:00,
2013-06-06 09:23:00,64.0,63.0,-100.00,NNE,15,4.0,10.0,98,0.00,,,-99.99,,2013-06-06 13:23:00,
2013-06-06 09:33:00,65.0,63.0,-100.00,NNE,16,4.0,10.0,98,0.00,,,-99.99,,2013-06-06 13:33:00,
2013-06-06 09:43:00,65.0,63.0,-100.00,North,9,6.0,10.0,97,0.00,,,-99.99,,2013-06-06 13:43:00,
2013-06-06 09:52:00,65.0,63.0,-100.00,North,9,6.0,10.0,97,0.00,,,-99.99,,2013-06-06 13:52:00,
2013-06-06 10:03:00,65.0,63.0,-100.00,NNE,18,7.0,10.0,95,0.00,,,-99.99,,2013-06-06 14:03:00,
2013-06-06 10:13:00,64.0,61.0,-100.00,NNE,22,7.0,10.0,94,0.00,,,-99.99,,2013-06-06 14:13:00,
2013-06-06 10:23:00,66.0,64.0,-100.00,North,355,6.0,10.0,97,0.00,,,-99.99,,2013-06-06 14:23:00,
2013-06-06 10:33:00,66.0,64.0,-100.00,North,8,6.0,10.0,95,0.00,,,-99.99,,2013-06-06 14:33:00,
2013-06-06 10:43:00,66.0,63.0,-100.00,North,360,7.0,10.0,93,0.00,,,-99.99,,2013-06-06 14:43:00,
2013-06-06 10:52:00,66.0,63.0,-100.00,North,0,6.0,10.0,94,0.00,,,-99.99,,2013-06-06 14:52:00,
2013-06-06 11:03:00,66.0,64.0,-100.00,North,4,7.0,10.0,94,0.00,,,-99.99,,2013-06-06 15:03:00,
2013-06-06 11:13:00,65.0,63.0,-100.00,North,355,7.0,12.0,94,0.00,,,-99.99,,2013-06-06 15:13:00,
2013-06-06 11:23:00,66.0,63.0,-100.00,NNE,19,5.0,12.0,93,0.00,,,-99.99,,2013-06-06 15:23:00,
2013-06-06 11:33:00,67.0,64.0,-100.00,North,0,6.0,12.0,93,0.00,,,-99.99,,2013-06-06 15:33:00,
2013-06-06 11:43:00,66.0,63.0,-100.00,NNE,14,6.0,12.0,93,0.00,,,-99.99,,2013-06-06 15:43:00,
2013-06-06 11:53:00,65.0,63.0,-100.00,North,4,6.0,12.0,93,0.00,,,-99.99,,2013-06-06 15:53:00,
2013-06-06 12:03:00,67.0,64.0,-100.00,North,2,5.0,12.0,93,0.00,,,-99.99,,2013-06-06 16:03:00,
2013-06-06 12:13:00,67.0,64.0,-100.00,North,2,4.0,12.0,94,0.00,,,-99.99,,2013-06-06 16:13:00,
2013-06-06 12:23:00,66.0,63.0,-100.00,North,7,5.0,12.0,94,4.53,,,-99.99,,2013-06-06 16:23:00,
2013-06-06 12:33:00,69.0,66.0,-100.00,North,357,6.0,12.0,94,0.00,,,-99.99,,2013-06-06 16:33:00,
2013-06-06 12:44:00,65.0,63.0,-100.00,NNE,19,7.0,12.0,94,0.00,,,-99.99,,2013-06-06 16:44:00,
2013-06-06 12:52:00,67.0,64.0,-100.00,North,9,5.0,12.0,94,0.00,,,-99.99,,2013-06-06 16:52:00,
2013-06-06 13:03:00,67.0,63.0,-100.00,NE,35,6.0,12.0,91,0.00,,,-99.99,,2013-06-06 17:03:00,
2013-06-06 13:13:00,66.0,63.0,-100.00,NNE,29,6.0,12.0,93,0.00,,,-99.99,,2013-06-06 17:13:00,
2013-06-06 13:23:00,67.0,64.0,-100.00,NNE,22,6.0,12.0,93,0.00,,,-99.99,,2013-06-06 17:23:00,
2013-06-06 13:33:00,67.0,64.0,-100.00,NNE,22,5.0,12.0,91,0.00,,,-99.99,,2013-06-06 17:33:00,
2013-06-06 13:43:00,68.0,64.0,-100.00,NNE,28,4.0,12.0,93,0.00,,,-99.99,,2013-06-06 17:43:00,
2013-06-06 13:52:00,68.0,64.0,-100.00,NNE,32,4.0,12.0,91,0.00,,,-99.99,,2013-06-06 17:52:00,
2013-06-06 14:03:00,68.0,64.0,-100.00,North,0,4.0,12.0,91,0.00,,,-99.99,,2013-06-06 18:03:00,
2013-06-06 14:13:00,67.0,63.0,-100.00,SE,132,4.0,12.0,91,0.00,,,-99.99,,2013-06-06 18:13:00,
2013-06-06 14:23:00,67.0,64.0,-100.00,SE,136,4.0,12.0,93,0.00,,,-99.99,,2013-06-06 18:23:00,
2013-06-06 14:33:00,66.0,63.0,-100.00,ESE,122,3.0,12.0,93,0.00,,,-99.99,,2013-06-06 18:33:00,
2013-06-06 14:43:00,68.0,64.0,-100.00,SSE,160,3.0,12.0,91,0.00,,,-99.99,,2013-06-06 18:43:00,
2013-06-06 14:53:00,69.0,64.0,-100.00,SE,136,4.0,12.0,91,7.36,,,-99.99,,2013-06-06 18:53:00,
2013-06-06 15:03:00,68.0,66.0,-100.00,SSE,148,3.0,12.0,94,7.36,,,-99.99,,2013-06-06 19:03:00,
2013-06-06 15:13:00,66.0,63.0,-100.00,SSE,162,4.0,12.0,94,7.36,,,-99.99,,2013-06-06 19:13:00,
2013-06-06 15:23:00,67.0,64.0,-100.00,SSW,207,5.0,12.0,95,0.00,,,-99.99,,2013-06-06 19:23:00,
2013-06-06 15:33:00,66.0,64.0,-100.00,South,189,6.0,12.0,97,0.00,,,-99.99,,2013-06-06 19:33:00,
2013-06-06 15:43:00,66.0,64.0,-100.00,SSE,153,4.0,12.0,97,7.95,,,-99.99,,2013-06-06 19:43:00,
2013-06-06 15:53:00,67.0,64.0,-100.00,SE,144,4.0,12.0,95,0.00,,,-99.99,,2013-06-06 19:53:00,
2013-06-06 16:03:00,67.0,64.0,-100.00,SE,145,4.0,12.0,95,0.00,,,-99.99,,2013-06-06 20:03:00,
2013-06-06 16:13:00,67.0,64.0,-100.00,SSE,156,3.0,12.0,95,0.00,,,-99.99,,2013-06-06 20:13:00,
2013-06-06 16:23:00,65.0,63.0,-100.00,SSE,159,1.0,12.0,95,11.34,,,-99.99,,2013-06-06 20:23:00,
2013-06-06 16:33:00,66.0,63.0,-100.00,WSW,247,1.0,12.0,95,7.95,,,-99.99,,2013-06-06 20:33:00,
2013-06-06 16:43:00,66.0,64.0,-100.00,South,186,2.0,12.0,95,0.00,,,-99.99,,2013-06-06 20:43:00,
2013-06-06 16:53:00,66.0,63.0,-100.00,SSW,201,3.0,12.0,94,0.00,,,-99.99,,2013-06-06 20:53:00,
2013-06-06 17:03:00,67.0,64.0,-100.00,SW,218,2.0,12.0,94,0.00,,,-99.99,,2013-06-06 21:03:00,
2013-06-06 17:13:00,67.0,63.0,-100.00,South,177,2.0,12.0,91,0.00,,,-99.99,,2013-06-06 21:13:00,
2013-06-06 17:23:00,67.0,63.0,-100.00,SSW,208,2.0,12.0,90,0.00,,,-99.99,,2013-06-06 21:23:00,
2013-06-06 17:33:00,67.0,64.0,-100.00,SW,221,2.0,12.0,91,0.00,,,-99.99,,2013-06-06 21:33:00,
2013-06-06 17:44:00,67.0,64.0,-100.00,WSW,242,3.0,12.0,91,0.00,,,-99.99,,2013-06-06 21:44:00,
2013-06-06 17:53:00,67.0,63.0,-100.00,SW,225,2.0,12.0,91,0.00,,,-99.99,,2013-06-06 21:53:00,
2013-06-06 18:03:00,67.0,63.0,-100.00,South,169,2.0,12.0,91,0.00,,,-99.99,,2013-06-06 22:03:00,
2013-06-06 18:13:00,67.0,63.0,-100.00,SW,216,1.0,12.0,91,0.00,,,-99.99,,2013-06-06 22:13:00,
2013-06-06 18:23:00,67.0,63.0,-100.00,SSW,206,2.0,12.0,91,0.00,,,-99.99,,2013-06-06 22:23:00,
2013-06-06 18:33:00,67.0,63.0,-100.00,SSE,155,2.0,12.0,91,0.00,,,-99.99,,2013-06-06 22:33:00,
2013-06-06 18:43:00,67.0,63.0,-100.00,South,186,2.0,12.0,91,0.00,,,-99.99,,2013-06-06 22:43:00,
2013-06-06 18:53:00,66.0,63.0,-100.00,SSE,149,3.0,12.0,93,0.00,,,-99.99,,2013-06-06 22:53:00,
2013-06-06 19:03:00,67.0,64.0,-100.00,SSE,160,4.0,12.0,94,0.00,,,-99.99,,2013-06-06 23:03:00,
2013-06-06 19:13:00,66.0,63.0,-100.00,SSE,166,4.0,12.0,93,0.00,,,-99.99,,2013-06-06 23:13:00,
2013-06-06 19:22:00,65.0,63.0,-100.00,SSE,152,3.0,12.0,93,0.00,,,-99.99,,2013-06-06 23:22:00,
2013-06-06 19:33:00,66.0,63.0,-100.00,South,177,3.0,12.0,94,0.00,,,-99.99,,2013-06-06 23:33:00,
2013-06-06 19:43:00,65.0,63.0,-100.00,SSE,156,4.0,12.0,94,0.00,,,-99.99,,2013-06-06 23:43:00,
2013-06-06 19:52:00,66.0,63.0,-100.00,SSE,158,3.0,12.0,93,0.00,,,-99.99,,2013-06-06 23:52:00,
2013-06-06 20:02:00,63.0,61.0,-100.00,SSW,206,3.0,12.0,94,0.00,,,-99.99,,2013-06-07 00:02:00,
2013-06-06 20:13:00,66.0,63.0,-100.00,SSE,148,2.0,12.0,94,0.00,,,-99.99,,2013-06-07 00:13:00,
2013-06-06 20:22:00,64.0,61.0,-100.00,SSE,156,3.0,12.0,94,0.00,,,-99.99,,2013-06-07 00:22:00,
2013-06-06 20:32:00,63.0,61.0,-100.00,SSE,160,4.0,12.0,97,0.00,,,-99.99,,2013-06-07 00:32:00,
2013-06-06 20:42:00,63.0,61.0,-100.00,SSW,194,2.0,12.0,97,0.00,,,-99.99,,2013-06-07 00:42:00,
2013-06-06 20:52:00,64.0,63.0,-100.00,SSE,149,5.0,12.0,98,0.00,,,-99.99,,2013-06-07 00:52:00,
2013-06-06 21:03:00,63.0,61.0,-100.00,SSE,159,6.0,12.0,98,0.00,,,-99.99,,2013-06-07 01:03:00,
2013-06-06 21:12:00,62.0,61.0,-100.00,SSE,152,5.0,12.0,98,0.00,,,-99.99,,2013-06-07 01:12:00,
2013-06-06 21:22:00,61.0,59.0,-100.00,SSE,158,4.0,12.0,98,0.00,,,-99.99,,2013-06-07 01:22:00,
2013-06-06 21:32:00,61.0,59.0,-100.00,SSE,155,6.0,12.0,98,0.00,,,-99.99,,2013-06-07 01:32:00,
2013-06-06 21:42:00,60.0,59.0,-100.00,SSE,149,6.0,12.0,99,0.00,,,-99.99,,2013-06-07 01:42:00,
2013-06-06 21:52:00,59.0,57.0,-100.00,SSE,149,7.0,12.0,99,0.00,,,-99.99,,2013-06-07 01:52:00,
2013-06-06 22:02:00,60.0,59.0,-100.00,SE,146,6.0,12.0,99,0.00,,,-99.99,,2013-06-07 02:02:00,
2013-06-06 22:12:00,57.0,55.0,-100.00,SE,146,6.0,12.0,99,0.00,,,-99.99,,2013-06-07 02:12:00,
2013-06-06 22:22:00,57.0,55.0,-100.00,South,175,6.0,12.0,100,0.00,,,-99.99,,2013-06-07 02:22:00,
2013-06-06 22:32:00,57.0,55.0,-100.00,South,175,6.0,12.0,100,0.00,,,-99.99,,2013-06-07 02:32:00,
2013-06-06 22:42:00,59.0,57.0,-100.00,South,176,2.0,12.0,99,0.00,,,-99.99,,2013-06-07 02:42:00,
2013-06-06 22:52:00,57.0,55.0,-100.00,SE,146,6.0,12.0,100,0.00,,,-99.99,,2013-06-07 02:52:00,
2013-06-06 23:02:00,56.0,55.0,-100.00,SSE,152,5.0,12.0,99,0.00,,,-99.99,,2013-06-07 03:02:00,
2013-06-06 23:12:00,56.0,55.0,-100.00,SE,142,4.0,12.0,99,0.00,,,-99.99,,2013-06-07 03:12:00,
2013-06-06 23:22:00,56.0,55.0,-100.00,SSE,149,3.0,12.0,99,0.00,,,-99.99,,2013-06-07 03:22:00,
2013-06-06 23:33:00,57.0,55.0,-100.00,South,182,4.0,12.0,99,0.00,,,-99.99,,2013-06-07 03:33:00,
2013-06-06 23:43:00,57.0,55.0,-100.00,South,182,4.0,12.0,99,0.00,,,-99.99,,2013-06-07 03:43:00,
2013-06-06 23:53:00,55.0,54.0,-100.00,South,177,3.0,12.0,99,0.00,,,-99.99,,2013-06-07 03:53:00,